Weather History for KCMD - April, 2014

Change the Weather History Date:

Monday, April 28, 2014

  Actual Average Record
Temperature  
Mean Temperature 71 °F -  
Max Temperature 78 °F - - ()
Min Temperature 64 °F - - ()
Cooling Degree Days 6    
Growing Degree Days 21 (Base 50)    
Moisture  
Dew Point 65 °F    
Average Humidity 84    
Maximum Humidity 96    
Minimum Humidity 68    
Precipitation  
Precipitation 0.34 in - - ()
Sea Level Pressure  
Sea Level Pressure 29.78 in    
Wind  
Wind Speed 13 mph (South)    
Max Wind Speed 21 mph    
Max Gust Speed 33 mph    
Visibility 9 miles    
Events Rain , Thunderstorm    
T = Trace of Precipitation, MM = Missing Value Source: NWS Daily Summary

Daily Weather History Graph

Daily Weather History Graph

Search for Another Location

Airport or City:

Trip Planner

Search our weather history database for the weather conditions in past years. The results will help you decide how hot, cold, wet, or windy it might be!

Date:

Astronomy

Apr. 28, 2014 Rise Set
Actual Time 6:00 AM CDT 7:29 PM CDT
Civil Twilight 5:34 AM CDT 7:55 PM CDT
Nautical Twilight 5:02 AM CDT 8:27 PM CDT
Astronomical Twilight 4:29 AM CDT 9:01 PM CDT
Moon 5:36 AM CDT (4/28) 7:08 PM CDT (4/28)
Length of Visible Light 14h 21m
Length of Day
13h 28m
Waning Crescent, 0% of the Moon is Illuminated
Apr 28
Waning Crescent
Apr 29
New
May 6
First Quarter
May 14
Full
May 21
Last Quarter

Hourly Weather History & Observations

Time (CDT) Temp. Dew Point Humidity Pressure Visibility Wind Dir Wind Speed Gust Speed Precip Events Conditions
12:15 AM 64.8 °F 61.9 °F 90% 29.84 in 10.0 mi SSE 12.7 mph 17.3 mph N/A   Clear
12:35 AM 64.9 °F 62.1 °F 90% 29.86 in 10.0 mi SSE 9.2 mph - N/A   Clear
12:55 AM 65.1 °F 62.4 °F 91% 29.86 in 10.0 mi SSE 9.2 mph - N/A   Mostly Cloudy
1:15 AM 65.5 °F 62.6 °F 90% 29.85 in 10.0 mi SSE 11.5 mph - N/A   Overcast
1:35 AM 65.7 °F 62.6 °F 90% 29.84 in 10.0 mi SSE 11.5 mph 17.3 mph N/A   Mostly Cloudy
1:55 AM 66.0 °F 62.8 °F 89% 29.84 in 10.0 mi SSE 10.4 mph - N/A   Mostly Cloudy
2:15 AM 66.2 °F 63.0 °F 89% 29.84 in 10.0 mi South 10.4 mph 16.1 mph N/A   Mostly Cloudy
2:35 AM 66.4 °F 63.1 °F 89% 29.84 in 10.0 mi South 11.5 mph - N/A   Overcast
2:55 AM 66.2 °F 63.1 °F 90% 29.83 in 10.0 mi South 10.4 mph 17.3 mph N/A   Mostly Cloudy
3:15 AM 66.0 °F 63.1 °F 90% 29.82 in 10.0 mi SSE 12.7 mph 17.3 mph N/A   Mostly Cloudy
3:35 AM 66.2 °F 63.5 °F 91% 29.80 in 10.0 mi South 13.8 mph 20.7 mph N/A Rain Light Rain
3:55 AM 66.2 °F 63.7 °F 92% 29.79 in 10.0 mi SSE 15.0 mph 23.0 mph N/A Rain Light Rain
4:15 AM 65.8 °F 63.7 °F 93% 29.79 in 10.0 mi SSE 13.8 mph 20.7 mph N/A   Scattered Clouds
4:35 AM 66.0 °F 63.9 °F 93% 29.80 in 10.0 mi South 17.3 mph 21.9 mph N/A   Mostly Cloudy
4:55 AM 66.4 °F 64.2 °F 93% 29.81 in 10.0 mi South 15.0 mph 23.0 mph N/A   Overcast
5:15 AM 66.7 °F 64.4 °F 92% 29.82 in 10.0 mi South 15.0 mph 23.0 mph N/A   Overcast
5:35 AM 66.6 °F 64.6 °F 93% 29.82 in 10.0 mi South 13.8 mph - N/A   Overcast
5:55 AM 66.4 °F 64.6 °F 94% 29.82 in 10.0 mi South 15.0 mph 20.7 mph N/A   Overcast
6:15 AM 66.2 °F 64.6 °F 94% 29.81 in 10.0 mi SSE 12.7 mph 20.7 mph N/A Rain Light Rain
6:35 AM 66.2 °F 64.8 °F 95% 29.82 in 7.0 mi South 8.1 mph - N/A   Overcast
6:55 AM 66.2 °F 64.9 °F 96% 29.85 in 5.0 mi South 12.7 mph - N/A Rain Light Rain
7:15 AM 66.4 °F 65.1 °F 96% 29.85 in 4.0 mi South 10.4 mph 17.3 mph N/A   Overcast
7:35 AM 66.4 °F 65.3 °F 96% 29.85 in 4.0 mi SSE 9.2 mph - N/A Rain Light Rain
7:55 AM 66.4 °F 65.3 °F 96% 29.84 in 4.0 mi SE 11.5 mph 18.4 mph N/A   Overcast
8:15 AM 66.4 °F 65.3 °F 96% 29.81 in 5.0 mi SSE 9.2 mph 21.9 mph N/A   Overcast
8:55 AM 67.6 °F 66.0 °F 95% 29.84 in 7.0 mi South 11.5 mph - N/A   Mostly Cloudy
9:15 AM 68.4 °F 66.2 °F 93% 29.84 in 7.0 mi South 11.5 mph - N/A   Mostly Cloudy
9:35 AM 68.9 °F 66.4 °F 92% 29.84 in 7.0 mi South 15.0 mph 23.0 mph N/A   Overcast
9:55 AM 69.6 °F 66.6 °F 90% 29.84 in 10.0 mi South 15.0 mph 21.9 mph N/A   Overcast
10:15 AM 70.7 °F 66.7 °F 87% 29.86 in 10.0 mi SSW 13.8 mph 18.4 mph N/A   Mostly Cloudy
10:35 AM 70.9 °F 66.4 °F 86% 29.84 in 10.0 mi South 17.3 mph 20.7 mph N/A   Overcast
11:15 AM 73.6 °F 67.3 °F 81% 29.87 in 10.0 mi South 16.1 mph - N/A   Mostly Cloudy
11:35 AM 74.8 °F 67.3 °F 77% 29.87 in 10.0 mi SSW 19.6 mph 25.3 mph N/A   Mostly Cloudy
11:55 AM 76.3 °F 66.9 °F 73% 29.86 in 10.0 mi South 19.6 mph 25.3 mph N/A   Mostly Cloudy
12:15 PM 76.3 °F 66.2 °F 71% 29.84 in 10.0 mi South 18.4 mph 24.2 mph N/A   Mostly Cloudy
12:35 PM 76.5 °F 65.8 °F 70% 29.83 in 10.0 mi SSW 18.4 mph 25.3 mph N/A   Scattered Clouds
12:55 PM 77.2 °F 66.0 °F 68% 29.80 in 10.0 mi South 17.3 mph 23.0 mph N/A   Clear
1:15 PM 76.8 °F 66.0 °F 69% 29.79 in 10.0 mi South 20.7 mph 28.8 mph N/A   Scattered Clouds
1:35 PM 76.8 °F 66.0 °F 69% 29.79 in 10.0 mi South 19.6 mph 27.6 mph N/A   Scattered Clouds
1:55 PM 76.6 °F 66.0 °F 70% 29.79 in 10.0 mi South 20.7 mph 26.5 mph N/A   Scattered Clouds
2:15 PM 76.6 °F 66.4 °F 70% 29.78 in 10.0 mi South 13.8 mph 20.7 mph N/A   Scattered Clouds
2:35 PM 78.3 °F 67.1 °F 68% 29.76 in 10.0 mi South 16.1 mph 24.2 mph N/A   Scattered Clouds
2:55 PM 78.3 °F 66.9 °F 68% 29.75 in 10.0 mi South 13.8 mph 20.7 mph N/A   Scattered Clouds
3:35 PM 78.1 °F 66.7 °F 68% 29.74 in 10.0 mi South 10.4 mph - N/A   Scattered Clouds
3:55 PM 77.2 °F 66.6 °F 70% 29.71 in 10.0 mi SSE 11.5 mph 18.4 mph N/A   Scattered Clouds
4:15 PM 77.2 °F 66.6 °F 70% 29.72 in 10.0 mi SSE 11.5 mph 19.6 mph N/A   Scattered Clouds
4:35 PM 76.8 °F 66.0 °F 69% 29.71 in 10.0 mi South 16.1 mph 20.7 mph N/A   Scattered Clouds
4:55 PM 76.3 °F 65.5 °F 69% 29.69 in 10.0 mi South 11.5 mph 16.1 mph N/A   Scattered Clouds
5:15 PM 76.1 °F 65.3 °F 69% 29.68 in 10.0 mi SSE 11.5 mph 20.7 mph N/A   Scattered Clouds
5:35 PM 75.7 °F 65.3 °F 70% 29.65 in 10.0 mi SSE 10.4 mph 16.1 mph N/A   Clear
5:55 PM 75.2 °F 65.5 °F 72% 29.63 in 10.0 mi SSE 12.7 mph 16.1 mph N/A   Clear
6:15 PM 74.8 °F 65.7 °F 73% 29.66 in 10.0 mi South 13.8 mph 20.7 mph N/A   Clear
6:35 PM 75.0 °F 65.7 °F 73% 29.68 in 10.0 mi South 13.8 mph - N/A   Scattered Clouds
6:55 PM 74.8 °F 65.5 °F 73% 29.69 in 10.0 mi South 12.7 mph 18.4 mph N/A   Scattered Clouds
7:15 PM 74.1 °F 65.8 °F 75% 29.69 in 10.0 mi South 11.5 mph - N/A Rain , Thunderstorm Light Thunderstorms and Rain
7:35 PM 72.9 °F 66.4 °F 80% 29.70 in 10.0 mi SSE 8.1 mph - 0.01 in Rain , Thunderstorm Thunderstorms and Rain
7:55 PM 71.6 °F 66.9 °F 85% 29.70 in 10.0 mi SSE 8.1 mph - 0.03 in Rain , Thunderstorm Thunderstorms and Rain
8:15 PM 70.9 °F 67.5 °F 89% 29.72 in 7.0 mi SSE 9.2 mph - 0.04 in Rain , Thunderstorm Thunderstorms and Rain
8:35 PM 70.5 °F 67.6 °F 91% 29.74 in 7.0 mi SSE 6.9 mph - 0.06 in Rain , Thunderstorm Rain
8:55 PM 70.2 °F 68.0 °F 93% 29.73 in 7.0 mi SE 10.4 mph - 0.08 in Rain Rain
9:15 PM 70.3 °F 66.6 °F 88% 29.69 in 10.0 mi South 18.4 mph 33.4 mph N/A Rain , Thunderstorm Light Thunderstorms and Rain
9:35 PM 69.8 °F 65.3 °F 86% 29.67 in 5.0 mi South 17.3 mph 29.9 mph 0.03 in Rain , Thunderstorm Rain
9:55 PM 68.0 °F 64.6 °F 89% 29.71 in 10.0 mi SSW 9.2 mph 17.3 mph 0.04 in Rain , Thunderstorm Rain
10:15 PM 67.3 °F 64.8 °F 92% 29.72 in 7.0 mi SW 11.5 mph 17.3 mph 0.03 in Rain Light Rain
10:35 PM 67.5 °F 65.5 °F 93% 29.73 in 7.0 mi South 12.7 mph - 0.05 in Rain Rain
10:55 PM 66.9 °F 64.6 °F 92% 29.71 in 7.0 mi South 13.8 mph 20.7 mph 0.08 in Rain , Thunderstorm Rain
11:15 PM 66.4 °F 64.0 °F 92% 29.70 in 7.0 mi SSE 13.8 mph 27.6 mph 0.05 in Rain , Thunderstorm Thunderstorms and Rain
11:35 PM 65.1 °F 62.4 °F 91% 29.71 in 5.0 mi SSE 8.1 mph 19.6 mph 0.11 in Rain Light Rain
11:55 PM 64.0 °F 62.2 °F 94% 29.69 in 10.0 mi SE 9.2 mph - 0.11 in Rain , Thunderstorm Light Thunderstorms and Rain